Home > Weather > Saint-Petersburg > Past weeks

Flag for Russia Past Weather in Saint-Petersburg, Russia — Yesterday and Last 2 Weeks

Now
68 °F

Passing clouds.


Feels Like: 68 °F
Forecast: 51 / 67 °F
Wind: 10 mph from Northwest

Location: St. Petersburg

Current Time: Aug 24, 2016 at 3:24:56 PM

Latest Report: Aug 24, 2016 at 2:30 PM


Visibility: N/A

Pressure: 30.12 "Hg

Humidity: 73%

Dew Point: 59 °F

Location of Saint-PetersburgLocation

Past Weather in Saint-Petersburg — Graph

°F

Saint-Petersburg Temperature Yesterday

Maximum temperature yesterday: 66 °F (at 12:30 AM)
Minimum temperature yesterday: 57 °F (at 10:00 PM)
Average temperature yesterday: 62 °F

High & Low Weather Summary for the Past Weeks

 TemperatureHumidityPressure
High79 °F (Aug 22, 2:30 PM)100% (Aug 15, 3:00 AM)30.18 "Hg (Aug 15, 3:00 AM)
Low48 °F (Aug 13, 4:00 AM)44% (Aug 9, 3:30 PM)29.53 "Hg (Aug 16, 7:30 AM)
Average61 °F82%29.95 "Hg
* Reported Aug 9 2:00 PM — Aug 24 2:00 PM, Saint-Petersburg, Weather by CustomWeather, © 2016

Note: Actual official high and low records may vary slightly from our data, if they occured in-between our weather recording intervals... More about our weather records

Advertising

Saint-Petersburg Weather History for the Previous 24 Hours

Scroll right to see more
 ConditionsComfort  
Time TempWeatherWind HumidityBarometerVisibility
2:00 PM
Wed, Aug 24
68 °FPassing clouds.10 mph73%30.12 "HgN/A
1:30 PM68 °FPassing clouds.13 mph73%30.12 "HgN/A
1:00 PM68 °FPartly sunny.15 mph69%30.12 "HgN/A
12:30 PM66 °FPartly sunny.15 mph78%30.12 "HgN/A
12:00 PM68 °FBroken clouds.15 mph73%30.12 "HgN/A
11:30 AM66 °FPartly sunny.10 mph73%30.12 "HgN/A
11:00 AM66 °FPartly sunny.10 mph78%30.12 "HgN/A
10:30 AM64 °FPartly sunny.10 mph88%30.12 "HgN/A
10:00 AM63 °FPartly sunny.8 mph94%30.12 "HgN/A
9:30 AM61 °FPartly sunny.6 mph100%30.12 "Hg6 mi
9:00 AM59 °FFog.6 mph100%30.09 "Hg2 mi
8:30 AM59 °FFog.6 mph94%30.09 "Hg1 mi
8:00 AM59 °FFog.6 mph94%30.09 "Hg2 mi
7:30 AM57 °FCool.6 mph100%30.09 "Hg1 mi
7:00 AM57 °FCool.6 mph94%30.09 "Hg0 mi
6:30 AM57 °FCool.6 mph94%30.09 "Hg0 mi
6:00 AM55 °FFog.6 mph94%30.09 "Hg3 mi
5:30 AM55 °FFog.6 mph100%30.09 "Hg3 mi
5:00 AM55 °FFog.3 mph94%30.09 "Hg3 mi
4:30 AM55 °FFog.3 mph94%30.09 "Hg3 mi
4:00 AM54 °FFog.6 mph100%30.09 "Hg5 mi
3:30 AM55 °FFog.3 mph94%30.09 "Hg5 mi
3:00 AM55 °FPassing clouds.3 mph94%30.09 "Hg5 mi
2:30 AM55 °FFog.3 mph94%30.09 "Hg6 mi
2:00 AM55 °FFog.3 mph94%30.09 "Hg2 mi
1:30 AM55 °FFog.3 mph94%30.09 "Hg2 mi
1:00 AM55 °FFog.3 mph94%30.09 "Hg2 mi
12:30 AM55 °FFog.1 mph94%30.09 "Hg2 mi
12:00 AM57 °FCool.3 mph94%30.09 "Hg1 mi
11:30 PM
Tue, Aug 23
57 °FCool.1 mph94%30.09 "Hg1 mi
11:00 PM57 °FFog.3 mph94%30.09 "Hg2 mi
10:30 PM57 °FFog.6 mph94%30.09 "Hg4 mi
10:00 PM57 °FFog.6 mph94%30.09 "Hg5 mi
9:30 PM59 °FPassing clouds.3 mph94%30.09 "HgN/A
9:00 PM59 °FPassing clouds.3 mph88%30.09 "HgN/A
8:30 PM59 °FPassing clouds.6 mph94%30.09 "HgN/A
8:00 PM61 °FScattered clouds.3 mph94%30.09 "HgN/A
7:30 PM63 °FBroken clouds.6 mph88%30.09 "HgN/A
7:00 PM63 °FBroken clouds.3 mph88%30.09 "HgN/A
6:30 PM63 °FBroken clouds.6 mph88%30.09 "HgN/A
6:00 PM61 °FBroken clouds.8 mph94%30.09 "HgN/A
5:30 PM61 °FMostly cloudy.10 mph94%30.09 "HgN/A
5:00 PM61 °FSprinkles. Broken clouds.10 mph94%30.09 "HgN/A
4:30 PM61 °FSprinkles. Cloudy.8 mph94%30.09 "HgN/A
4:00 PM61 °FSprinkles. Cloudy.10 mph94%30.09 "HgN/A
3:30 PM61 °FSprinkles. Cloudy.10 mph94%30.12 "HgN/A
3:00 PM61 °FSprinkles. Cloudy.8 mph94%30.12 "Hg6 mi
Weather by CustomWeather, © 2016

See weather overviewHow to use our weather pages